Weather History for Jackson, MN

Change the Weather History Date:

Tuesday, May 6, 2014

  Actual Average Record
Temperature  
Mean Temperature 56 °F -  
Max Temperature 69 °F 63 °F 84 °F (2000)
Min Temperature 42 °F 42 °F 33 °F (1997)
Degree Days  
Heating Degree Days 10    
Growing Degree Days 6 (Base 50)    
Moisture  
Dew Point 35 °F    
Average Humidity 43    
Maximum Humidity 71    
Minimum Humidity 28    
Precipitation  
Precipitation 0.00 in - - ()
Sea Level Pressure  
Sea Level Pressure 29.78 in    
Wind  
Wind Speed 16 mph (ESE)    
Max Wind Speed 28 mph    
Max Gust Speed 37 mph    
Visibility 10 miles    
Events      
Averages and records for this station are not official NWS values.
T = Trace of Precipitation, MM = Missing Value Source: NWS Daily Summary

Daily Weather History Graph

Daily Weather History Graph

Search for Another Location

Airport:

Trip Planner

Search our weather history database for the weather conditions in past years. The results will help you decide how hot, cold, wet, or windy it might be!

Date:

Astronomy

May. 06, 2014 Rise Set
Actual Time 6:05 AM CDT 8:28 PM CDT
Civil Twilight 5:33 AM CDT 9:00 PM CDT
Nautical Twilight 4:53 AM CDT 9:40 PM CDT
Astronomical Twilight 4:09 AM CDT 10:25 PM CDT
Moon 12:24 PM CDT (5/6) 1:46 AM CDT (5/6)
Length of Visible Light 15h 26m
Length of Day
14h 22m
Waxing Crescent, 46% of the Moon is Illuminated
May 6
Waxing Crescent
May 6
First Quarter
May 14
Full
May 21
Last Quarter
May 28
New

Hourly Weather History & Observations

Time (CDT) Temp. Windchill Dew Point Humidity Pressure Visibility Wind Dir Wind Speed Gust Speed Precip Events Conditions
12:12 AM 44.6 °F 41.4 °F 35.6 °F 71% 29.91 in 10.0 mi East 5.8 mph - N/A   Clear
12:32 AM 44.6 °F 40.7 °F 35.6 °F 71% 29.91 in 10.0 mi East 6.9 mph - N/A   Clear
12:52 AM 44.6 °F 40.2 °F 35.6 °F 71% 29.90 in 10.0 mi East 8.1 mph - N/A   Clear
1:12 AM 44.6 °F 40.2 °F 35.6 °F 71% 29.90 in 10.0 mi East 8.1 mph - N/A   Clear
1:32 AM 44.6 °F 39.7 °F 35.6 °F 71% 29.89 in 10.0 mi ESE 9.2 mph - N/A   Clear
1:52 AM 46.4 °F 41.5 °F 35.6 °F 66% 29.88 in 10.0 mi ESE 10.4 mph - N/A   Clear
2:12 AM 46.4 °F 41.5 °F 35.6 °F 66% 29.88 in 10.0 mi ESE 10.4 mph - N/A   Clear
2:32 AM 46.4 °F 41.1 °F 35.6 °F 66% 29.87 in 10.0 mi ESE 11.5 mph - N/A   Clear
6:53 AM 42.8 °F 36.2 °F 32.0 °F 66% 29.87 in 10.0 mi East 12.7 mph - N/A   Clear
7:12 AM 44.6 °F 37.8 °F 32.0 °F 61% 29.87 in 10.0 mi ESE 15.0 mph - N/A   Clear
7:32 AM 46.4 °F 39.2 °F 32.0 °F 57% 29.87 in 10.0 mi ESE 18.4 mph - N/A   Clear
7:53 AM 46.4 °F 39.2 °F 32.0 °F 57% 29.87 in 10.0 mi ESE 18.4 mph 25.3 mph N/A   Clear
8:12 AM 48.2 °F - 32.0 °F 54% 29.89 in 10.0 mi ESE 18.4 mph - N/A   Clear
9:12 AM 51.8 °F - 32.0 °F 47% 29.88 in 10.0 mi SE 21.9 mph 26.5 mph N/A   Clear
9:32 AM 53.6 °F - 32.0 °F 44% 29.88 in 10.0 mi SE 19.6 mph 26.5 mph N/A   Clear
9:52 AM 55.4 °F - 32.0 °F 41% 29.88 in 10.0 mi ESE 20.7 mph 26.5 mph N/A   Clear
10:12 AM 55.4 °F - 32.0 °F 41% 29.88 in 10.0 mi SE 17.3 mph 25.3 mph N/A   Clear
10:32 AM 55.4 °F - 32.0 °F 41% 29.87 in 10.0 mi ESE 19.6 mph 27.6 mph N/A   Clear
10:52 AM 57.2 °F - 32.0 °F 38% 29.86 in 10.0 mi ESE 21.9 mph 27.6 mph N/A   Clear
11:12 AM 57.2 °F - 32.0 °F 38% 29.84 in 10.0 mi ESE 23.0 mph 28.8 mph N/A   Clear
11:32 AM 59.0 °F - 32.0 °F 36% 29.83 in 10.0 mi SE 24.2 mph 31.1 mph N/A   Clear
11:52 AM 60.8 °F - 33.8 °F 36% 29.81 in 10.0 mi ESE 26.5 mph 33.4 mph N/A   Clear
12:12 PM 60.8 °F - 33.8 °F 36% 29.80 in 10.0 mi ESE 27.6 mph 36.8 mph N/A   Clear
12:32 PM 62.6 °F - 33.8 °F 34% 29.78 in 10.0 mi ESE 25.3 mph 33.4 mph N/A   Clear
12:52 PM 62.6 °F - 33.8 °F 34% 29.77 in 10.0 mi ESE 26.5 mph 35.7 mph N/A   Clear
1:12 PM 64.4 °F - 33.8 °F 32% 29.76 in 10.0 mi ESE 26.5 mph 33.4 mph N/A   Clear
1:32 PM 64.4 °F - 33.8 °F 32% 29.75 in 10.0 mi ESE 25.3 mph 34.5 mph N/A   Clear
1:52 PM 64.4 °F - 33.8 °F 32% 29.74 in 10.0 mi ESE 27.6 mph - N/A   Clear
2:13 PM 66.2 °F - 35.6 °F 32% 29.74 in 10.0 mi ESE 25.3 mph 33.4 mph N/A   Clear
2:32 PM 68.0 °F - 35.6 °F 30% 29.74 in 10.0 mi ESE 23.0 mph 34.5 mph N/A   Clear
2:52 PM 68.0 °F - 35.6 °F 30% 29.72 in 10.0 mi East 26.5 mph 33.4 mph N/A   Clear
3:13 PM 68.0 °F - 35.6 °F 30% 29.71 in 10.0 mi ESE 23.0 mph 35.7 mph N/A   Clear
3:52 PM 69.8 °F - 35.6 °F 28% 29.71 in 10.0 mi ESE 21.9 mph 32.2 mph N/A   Clear
4:12 PM 69.8 °F - 35.6 °F 28% 29.70 in 10.0 mi East 24.2 mph 34.5 mph N/A   Mostly Cloudy
4:32 PM 69.8 °F - 35.6 °F 28% 29.71 in 10.0 mi ESE 26.5 mph 31.1 mph N/A   Overcast
4:52 PM 68.0 °F - 35.6 °F 30% 29.71 in 10.0 mi ESE 21.9 mph 29.9 mph N/A   Overcast
5:12 PM 69.8 °F - 35.6 °F 28% 29.71 in 10.0 mi ESE 21.9 mph 28.8 mph N/A   Overcast
5:32 PM 68.0 °F - 35.6 °F 30% 29.72 in 10.0 mi ESE 18.4 mph 26.5 mph N/A   Overcast
5:52 PM 68.0 °F - 35.6 °F 30% 29.69 in 10.0 mi ESE 26.5 mph 32.2 mph N/A   Mostly Cloudy
6:12 PM 68.0 °F - 35.6 °F 30% 29.69 in 10.0 mi ESE 24.2 mph 29.9 mph N/A   Scattered Clouds
6:32 PM 68.0 °F - 35.6 °F 30% 29.69 in 10.0 mi ESE 20.7 mph 28.8 mph N/A   Mostly Cloudy
6:53 PM 68.0 °F - 35.6 °F 30% 29.68 in 10.0 mi ESE 23.0 mph 31.1 mph N/A   Mostly Cloudy
7:12 PM 66.2 °F - 37.4 °F 35% 29.69 in 10.0 mi ESE 23.0 mph 29.9 mph N/A   Overcast
7:32 PM 66.2 °F - 37.4 °F 35% 29.71 in 10.0 mi ESE 18.4 mph 26.5 mph N/A   Overcast
7:52 PM 64.4 °F - 37.4 °F 37% 29.72 in 10.0 mi ESE 17.3 mph 24.2 mph N/A   Overcast
8:12 PM 64.4 °F - 37.4 °F 37% 29.72 in 10.0 mi ESE 18.4 mph - N/A   Overcast
8:32 PM 64.4 °F - 37.4 °F 37% 29.72 in 10.0 mi ESE 16.1 mph 23.0 mph N/A   Overcast
8:53 PM 64.4 °F - 37.4 °F 37% 29.72 in 10.0 mi ESE 18.4 mph - N/A   Overcast
9:12 PM 62.6 °F - 37.4 °F 39% 29.72 in 10.0 mi ESE 17.3 mph 21.9 mph N/A   Overcast
9:32 PM 62.6 °F - 37.4 °F 39% 29.71 in 10.0 mi ESE 19.6 mph 23.0 mph N/A   Overcast
9:52 PM 62.6 °F - 39.2 °F 42% 29.72 in 10.0 mi ESE 16.1 mph - N/A   Overcast
10:12 PM 62.6 °F - 39.2 °F 42% 29.72 in 10.0 mi East 13.8 mph 19.6 mph N/A   Overcast
10:32 PM 60.8 °F - 39.2 °F 45% 29.71 in 10.0 mi East 13.8 mph - N/A   Overcast
10:52 PM 60.8 °F - 41.0 °F 48% 29.71 in 10.0 mi East 13.8 mph - N/A   Overcast
11:12 PM 59.0 °F - 39.2 °F 48% 29.71 in 10.0 mi East 13.8 mph - N/A   Scattered Clouds
11:32 PM 59.0 °F - 39.2 °F 48% 29.70 in 10.0 mi East 15.0 mph - N/A   Clear
11:52 PM 59.0 °F - 39.2 °F 48% 29.70 in 10.0 mi East 16.1 mph - N/A   Clear